PRAETORIAN SDA_615

Last updated on Thu Aug 20 2026 00:03:39 GMT+0000 (Coordinated Universal Time)

1 65578U 25203P 26231.17697876 .00000160 00000+0 13232-3 0 9998 2 65578 81.3043 312.2004 0009185 28.3213 331.8442 13.84440773 47429
UTC large
Height (km)
Speed (km/s)
/
Latitude / Longitude
Inclination (degrees)
Orbital Period (minutes)
Azimuth
Elevation
Range (km)
Doppler Factor

Next 0 passes for location: London (51.5072 / 0.1276)

No passes found over London.
PRAETORIAN SDA_615